This demonstration page uses our WeatherBlox Daily Observations layout. Learn more.

Left ArrowRight Arrow

39.08367, -84.50855

Hourly Observations for December 16, 2019

Temp ( °F °C ) Dew Point ( °F °C ) Humidity (%) Winds ( mph kmh ) Pressure ( in mb ) Visibility ( mi km ) Precip ( " mm )
12:09 am 00:09 Cloudy with Light Rain 33 0.6 32 undefined 96 96 NE 5 7 30.10 1019 4 6 0.01 0.25
12:23 am 00:23 Cloudy with Light Rain 33 0.6 32 undefined 96 96 NNE 5 7 30.09 1019 3 4 0.02 0.51
12:35 am 00:35 Cloudy with Light Rain 33 0.6 32 undefined 96 96 NNE 6 9 30.08 1019 3 5 0.04 1.02
12:45 am 00:45 Cloudy with Light Rain 33 0.6 32 undefined 96 96 NNE 5 7 30.08 1019 3 5 0.05 1.27
12:53 am 00:53 Cloudy with Light Rain 33 0.6 32 undefined 96 96 NNE 6 9 30.06 1018 3 5 0.06 1.52
1:41 am 01:41 Cloudy with Light Rain 33 0.6 32 undefined 96 96 N 5 7 30.08 1019 4 6 0.06 1.52
1:53 am 01:53 Cloudy with Light Rain 33 0.6 32 undefined 96 96 N 3 6 30.05 1018 4 6 0.08 2.03
2:53 am 02:53 Cloudy with Mist and Fog 33 0.6 32 undefined 96 96 VRB 3 6 30.04 1017 4 6 0.05 1.27
3:53 am 03:53 Cloudy 34 1.1 33 0.6 97 97 NNE 6 9 30.05 1018 10 16 0.01 0.25
4:53 am 04:53 Cloudy with Mist and Fog 33 0.6 33 0.6 100 100 N N/A 30.06 1018 6 10 N/A
5:53 am 05:53 Cloudy 34 1.1 32 undefined 92 92 NNE 3 6 30.07 1018 8 13 N/A
6:53 am 06:53 Cloudy 34 1.1 32 undefined 92 92 NNE 8 13 30.09 1019 7 11 N/A
7:53 am 07:53 Cloudy with Mist and Fog 33 0.6 32 undefined 96 96 NE 7 11 30.10 1019 6 10 N/A
8:53 am 08:53 Cloudy with Mist and Fog 34 1.1 32 undefined 92 92 NE 8 13 30.11 1020 4 6 N/A
9:53 am 09:53 Cloudy with Mist and Fog 34 1.1 32 undefined 92 92 NNE 8 13 30.14 1021 4 6 N/A
10:53 am 10:53 Cloudy with Mist and Fog 34 1.1 32 undefined 92 92 NNE 6 9 30.14 1021 4 6 N/A
11:53 am 11:53 Cloudy with Mist and Fog 34 1.1 32 undefined 92 92 NE 8 13 30.10 1019 4 6 N/A
12:53 pm 12:53 Cloudy with Mist and Fog 34 1.1 32 undefined 92 92 NE 9 15 30.07 1018 3 5 N/A
1:33 pm 13:33 Cloudy with Light Rain 34 1.1 32 undefined 92 92 NE 10 17 30.07 1018 3 4 0.03 0.76
1:53 pm 13:53 Cloudy with Light Rain 34 1.1 32 undefined 92 92 NNE 9 15 30.06 1018 2 3 0.06 1.52
2:53 pm 14:53 Cloudy with Rain 34 1.1 32 undefined 92 92 NE 10 17 30.04 1017 2 3 0.14 3.56
2:55 pm 14:55 Cloudy with Rain 34 1.1 32 undefined 92 92 NE 10 17 30.06 1018 3 5 0.00 0.00
3:03 pm 15:03 Cloudy with Rain 34 1.1 32 undefined 92 92 NE 10 17 30.05 1017 2 3 0.02 0.51
3:53 pm 15:53 Cloudy with Rain 34 1.1 32 undefined 92 92 NNE 6 9 30.00 1016 2 3 0.13 3.30
4:53 pm 16:53 Cloudy with Light Rain 34 1.1 32 undefined 92 92 NE 8 13 29.99 1016 3 5 0.09 2.29
5:45 pm 17:45 Cloudy with Rain 34 1.1 32 undefined 92 92 N 9 15 30.04 1017 5 8 0.08 2.03
5:53 pm 17:53 Cloudy with Rain 34 1.1 32 undefined 92 92 NNE 8 13 30.02 1017 4 6 0.11 2.79
6:50 pm 18:50 Cloudy with Rain 34 1 32 undefined 93 93 NE 9 15 30.02 1016 3 4 0.18 4.57
6:53 pm 18:53 Cloudy with Mist and Fog 34 1.1 33 0.6 97 97 NE 9 15 30.00 1016 3 4 0.19 4.83
7:00 pm 19:00 Cloudy with Rain 34 1.1 33 0.6 97 97 NE 8 13 30.01 1016 3 5 0.02 0.51
7:53 pm 19:53 Cloudy with Light Rain 34 1.1 32 undefined 92 92 NNE 7 11 29.99 1016 5 8 0.08 2.03
8:44 pm 20:44 Cloudy 34 1.1 32 undefined 92 92 NNE 9 15 30.00 1016 8 13 0.00 0.00
8:53 pm 20:53 Cloudy 34 1.1 32 undefined 92 92 NNE 8 13 29.97 1015 8 13 0.00 0.00
9:53 pm 21:53 Cloudy with Light Rain 34 1.1 32 undefined 92 92 NNE 8 13 29.92 1013 7 11 0.00 0.00
10:53 pm 22:53 Cloudy with Mist and Fog 34 1.1 32 undefined 92 92 NNE 7 11 29.93 1014 6 10 0.00 0.00
11:37 pm 23:37 Cloudy with Mist and Fog 34 1.1 32 undefined 92 92 N 10 17 29.95 1014 6 10 N/A
11:53 pm 23:53 Cloudy with Mist and Fog 34 1.1 32 undefined 92 92 NNE 12 19 29.91 1013 6 10 N/A

Powered by AerisWeather